When you browse on this site, cookies collect data to enhance your experience and personalize the content and advertising you see.
Visit our Privacy Policy to learn more. By continuing to use the site, you agree to this use of cookies and data.
  • In Romania
  • List of Countries
  • For 7 days
  • Water Temperature
  • Satellite Maps
  • Weather Map
  • Weather Widgets
  • user-avatar
    Login

    Hourly Weather Konyshkovo

    Today, 17 November, Saturday

    Time Temperature Precipitation Wind Pressure Humidity
    00:00 -4°C° 0 mm 3 mps 759 mmHg 90%
    01:00 -4°C° 0 mm 3 mps 758 mmHg 90%
    02:00 -3°C° 0 mm 2 mps 758 mmHg 92%
    03:00 -4°C° 0 mm 3 mps 757 mmHg 91%
    04:00 -4°C° 0 mm 3 mps 757 mmHg 90%
    05:00 -4°C° 0 mm 3 mps 756 mmHg 89%
    06:00 -4°C° 0 mm 3 mps 756 mmHg 88%
    07:00 -4°C° 0 mm 4 mps 756 mmHg 87%
    08:00 -4°C° 0 mm 4 mps 755 mmHg 84%
    09:00 -3°C° 0 mm 4 mps 755 mmHg 82%
    10:00 -3°C° 0 mm 4 mps 755 mmHg 80%
    11:00 -2°C° 0 mm 4 mps 754 mmHg 78%
    12:00 -2°C° 0.2 mm 4 mps 753 mmHg 78%
    13:00 -2°C° 0.2 mm 4 mps 753 mmHg 79%
    14:00 -2°C° 0 mm 4 mps 752 mmHg 83%
    15:00 -2°C° 0.6 mm 4 mps 751 mmHg 85%
    16:00 -2°C° 0.6 mm 4 mps 751 mmHg 87%
    17:00 -2°C° 0.6 mm 4 mps 750 mmHg 89%
    18:00 -2°C° 0.1 mm 4 mps 749 mmHg 89%
    19:00 -2°C° 0.1 mm 4 mps 748 mmHg 89%
    20:00 -2°C° 0.1 mm 4 mps 747 mmHg 90%
    21:00 -1°C° 0.1 mm 4 mps 747 mmHg 90%
    22:00 -1°C° 0.1 mm 4 mps 746 mmHg 91%
    23:00 -1°C° 0.1 mm 4 mps 746 mmHg 91%

    Tomorrow, 18 November, Sunday

    Time Temperature Precipitation Wind Pressure Humidity
    00:00 -1°C° 0.1 mm 4 mps 745 mmHg 91%
    01:00 -1°C° 0.1 mm 4 mps 744 mmHg 92%
    02:00 -1°C° 0.1 mm 4 mps 744 mmHg 92%
    03:00 -1°C° 0.2 mm 4 mps 743 mmHg 93%
    04:00 0°C° 0.2 mm 3 mps 743 mmHg 93%
    05:00 0°C° 0.2 mm 3 mps 742 mmHg 94%
    06:00 0°C° 0.1 mm 3 mps 742 mmHg 95%
    07:00 +1°C° 0.1 mm 2 mps 742 mmHg 95%
    08:00 +1°C° 0.1 mm 2 mps 742 mmHg 96%
    09:00 +1°C° 0.1 mm 2 mps 742 mmHg 96%
    10:00 +2°C° 0.1 mm 2 mps 742 mmHg 96%
    11:00 +2°C° 0.1 mm 2 mps 742 mmHg 97%
    12:00 +2°C° 0.2 mm 2 mps 743 mmHg 97%
    13:00 +2°C° 0.2 mm 2 mps 743 mmHg 97%
    14:00 +2°C° 0.2 mm 2 mps 743 mmHg 97%
    15:00 +2°C° 0.1 mm 2 mps 744 mmHg 97%
    16:00 +1°C° 0.1 mm 2 mps 744 mmHg 97%
    17:00 +1°C° 0.1 mm 2 mps 744 mmHg 97%
    18:00 +1°C° 0 mm 2 mps 745 mmHg 97%
    19:00 +1°C° 0 mm 2 mps 745 mmHg 97%
    20:00 +1°C° 0 mm 2 mps 745 mmHg 97%
    21:00 +1°C° 0 mm 2 mps 746 mmHg 97%
    22:00 +1°C° 0 mm 2 mps 746 mmHg 97%
    23:00 +1°C° 0 mm 2 mps 747 mmHg 97%

    Day after tomorrow, 19 November, Monday

    Time Temperature Precipitation Wind Pressure Humidity
    00:00 +1°C° 0.1 mm 2 mps 747 mmHg 97%
    01:00 +1°C° 0.1 mm 2 mps 748 mmHg 97%
    02:00 +1°C° 0.1 mm 2 mps 748 mmHg 97%
    03:00 -1°C° 0.1 mm 2 mps 749 mmHg 97%
    04:00 -1°C° 0.1 mm 2 mps 749 mmHg 96%
    05:00 -1°C° 0.1 mm 2 mps 749 mmHg 96%
    06:00 -1°C° 0.1 mm 2 mps 750 mmHg 95%
    07:00 -1°C° 0.1 mm 3 mps 750 mmHg 95%
    08:00 -1°C° 0.1 mm 3 mps 751 mmHg 94%
    09:00 -1°C° 0 mm 3 mps 751 mmHg 93%
    10:00 -1°C° 0 mm 3 mps 752 mmHg 92%
    11:00 -1°C° 0 mm 3 mps 752 mmHg 91%
    12:00 -1°C° 0 mm 3 mps 752 mmHg 90%
    13:00 -1°C° 0 mm 3 mps 752 mmHg 90%
    14:00 -1°C° 0 mm 3 mps 753 mmHg 90%
    15:00 -2°C° 0 mm 2 mps 753 mmHg 90%
    16:00 -2°C° 0 mm 2 mps 753 mmHg 91%
    17:00 -2°C° 0 mm 2 mps 753 mmHg 92%
    18:00 -3°C° 0 mm 2 mps 753 mmHg 92%
    19:00 -3°C° 0 mm 2 mps 753 mmHg 92%
    20:00 -3°C° 0 mm 2 mps 753 mmHg 92%
    21:00 -3°C° 0 mm 2 mps 753 mmHg 92%
    22:00 -3°C° 0 mm 2 mps 753 mmHg 91%
    23:00 -1°C° 0 mm 1 mps 753 mmHg 91%

    20 November, Tuesday

    Time Temperature Precipitation Wind Pressure Humidity
    00:00 -1°C° 0 mm 1 mps 753 mmHg 91%
    01:00 -1°C° 0 mm 1 mps 753 mmHg 90%
    02:00 -1°C° 0 mm 1 mps 753 mmHg 90%
    03:00 -1°C° 0 mm 1 mps 753 mmHg 89%
    04:00 -2°C° 0 mm 1 mps 752 mmHg 89%
    05:00 -2°C° 0 mm 1 mps 752 mmHg 88%
    06:00 -2°C° 0 mm 1 mps 752 mmHg 89%
    07:00 -3°C° 0 mm 0 mps 752 mmHg 89%
    08:00 -3°C° 0 mm 0 mps 752 mmHg 89%
    09:00 -3°C° 0 mm 0 mps 751 mmHg 87%
    10:00 -1°C° 0 mm 1 mps 751 mmHg 85%
    11:00 -1°C° 0 mm 1 mps 751 mmHg 82%
    12:00 -1°C° 0 mm 1 mps 750 mmHg 82%
    13:00 -2°C° 0 mm 2 mps 750 mmHg 82%
    14:00 -2°C° 0 mm 2 mps 750 mmHg 83%
    15:00 -2°C° 0 mm 2 mps 749 mmHg 84%
    16:00 -3°C° 0 mm 2 mps 749 mmHg 85%
    17:00 -3°C° 0 mm 2 mps 749 mmHg 86%
    18:00 -3°C° 0 mm 2 mps 748 mmHg 86%
    19:00 -3°C° 0 mm 2 mps 748 mmHg 86%
    20:00 -3°C° 0 mm 2 mps 748 mmHg 87%
    21:00 -3°C° 0 mm 2 mps 748 mmHg 87%
    22:00 -4°C° 0 mm 2 mps 748 mmHg 87%
    23:00 -4°C° 0 mm 2 mps 747 mmHg 88%

    21 November, Wednesday

    Time Temperature Precipitation Wind Pressure Humidity
    00:00 -4°C° 0 mm 2 mps 747 mmHg 88%
    01:00 -4°C° 0 mm 2 mps 747 mmHg 88%
    02:00 -4°C° 0 mm 2 mps 747 mmHg 88%
    03:00 -4°C° 0 mm 2 mps 747 mmHg 89%
    04:00 -4°C° 0 mm 2 mps 747 mmHg 89%
    05:00 -4°C° 0 mm 2 mps 747 mmHg 90%
    06:00 -3°C° 0 mm 2 mps 747 mmHg 89%
    07:00 -4°C° 0 mm 3 mps 747 mmHg 89%
    08:00 -4°C° 0 mm 3 mps 747 mmHg 89%
    09:00 -4°C° 0 mm 3 mps 748 mmHg 87%
    10:00 -2°C° 0 mm 3 mps 748 mmHg 84%
    11:00 -2°C° 0 mm 3 mps 748 mmHg 82%
    12:00 -2°C° 0 mm 3 mps 748 mmHg 81%
    13:00 -2°C° 0 mm 3 mps 749 mmHg 80%
    14:00 -2°C° 0 mm 3 mps 749 mmHg 80%
    15:00 -2°C° 0 mm 3 mps 749 mmHg 80%
    16:00 -3°C° 0 mm 2 mps 749 mmHg 81%
    17:00 -3°C° 0 mm 2 mps 749 mmHg 81%
    18:00 -3°C° 0 mm 2 mps 749 mmHg 83%
    19:00 -4°C° 0 mm 2 mps 749 mmHg 86%
    20:00 -5°C° 0 mm 2 mps 749 mmHg 88%
    21:00 -5°C° 0 mm 2 mps 749 mmHg 89%
    22:00 -5°C° 0 mm 2 mps 748 mmHg 90%
    23:00 -5°C° 0 mm 2 mps 748 mmHg 91%

    22 November, Thursday

    Time Temperature Precipitation Wind Pressure Humidity
    00:00 -5°C° 0 mm 2 mps 748 mmHg 90%
    01:00 -5°C° 0 mm 2 mps 748 mmHg 90%
    02:00 -6°C° 0 mm 3 mps 747 mmHg 89%
    03:00 -6°C° 0 mm 3 mps 747 mmHg 89%
    04:00 -7°C° 0 mm 4 mps 746 mmHg 88%
    05:00 -5°C° 0 mm 4 mps 746 mmHg 88%
    06:00 -5°C° 0 mm 4 mps 746 mmHg 87%
    07:00 -5°C° 0 mm 4 mps 745 mmHg 86%
    08:00 -5°C° 0 mm 4 mps 745 mmHg 84%
    09:00 -6°C° 0 mm 5 mps 745 mmHg 83%
    10:00 -5°C° 0 mm 5 mps 744 mmHg 82%
    11:00 -5°C° 0 mm 5 mps 744 mmHg 80%
    12:00 -5°C° 0 mm 5 mps 744 mmHg 81%
    13:00 -5°C° 0 mm 5 mps 744 mmHg 81%
    14:00 -4°C° 0 mm 5 mps 744 mmHg 82%
    15:00 -3°C° 0 mm 4 mps 744 mmHg 83%
    16:00 -3°C° 0 mm 4 mps 745 mmHg 84%
    17:00 -3°C° 0 mm 4 mps 745 mmHg 85%
    18:00 -3°C° 0 mm 4 mps 745 mmHg 86%
    19:00 -2°C° 0 mm 3 mps 745 mmHg 88%
    20:00 -2°C° 0 mm 3 mps 745 mmHg 89%
    21:00 -2°C° 0 mm 3 mps 746 mmHg 90%
    22:00 -2°C° 0 mm 3 mps 746 mmHg 90%
    23:00 -2°C° 0 mm 3 mps 746 mmHg 91%
    Show more